Fremont, MI

6:25 PM EDT on October 22, 2019 (GMT -0400)
Fremont

Weather History for KFFX - August, 2019

Change the Weather History Date:

Friday, August 30, 2019

  Actual Average (KMKG) Record (KMKG)
Temperature  
Mean Temperature 60 °F -  
Max Temperature 71 °F 77 °F 90 °F (2010)
Min Temperature 50 °F 59 °F 41 °F (1976)
Degree Days  
Heating Degree Days 4    
Growing Degree Days 10 (Base 50)    
Moisture  
Dew Point 46 °F    
Average Humidity 65    
Maximum Humidity 94    
Minimum Humidity 22    
Precipitation  
Precipitation 0.00 in - - ()
Sea Level Pressure  
Sea Level Pressure 30.08 in    
Wind  
Wind Speed 3 mph ()    
Max Wind Speed 10 mph    
Max Gust Speed 17 mph    
Visibility 7.9 miles    
Events Fog    
Averages and records for this station are not official NWS values.
T = Trace of Precipitation, MM = Missing Value Source: Averaged Metar Reports

Daily Weather History Graph

Daily Weather History Graph

Search for Another Location

Airport or City:

Astronomy

Aug. 30, 2019 Rise Set
Actual Time 7:05 AM EDT 8:23 PM EDT
Civil Twilight 6:35 AM EDT 8:52 PM EDT
Nautical Twilight 6:00 AM EDT 9:27 PM EDT
Astronomical Twilight 5:22 AM EDT 10:05 PM EDT
Moon 7:03 AM EDT (8/30) 8:59 PM EDT (8/30)
Length of Visible Light 14h 16m
Length of Day
13h 17m
New Moon, 0% of the Moon is Illuminated
Aug 30
New Moon
Sep 5
First Quarter
Sep 14
Full
Sep 21
Last Quarter
Sep 28
New

Hourly Weather History & Observations

Time (EDT) Temp. Dew Point Humidity Pressure Visibility Wind Dir Wind Speed Gust Speed Precip Events Conditions
12:15 AM 60.1 °F 57.7 °F 92% 29.88 in 10.0 mi WNW 4.6 mph - N/A   Scattered Clouds
12:35 AM 59.0 °F 57.2 °F 94% 29.89 in 10.0 mi NW 4.6 mph - N/A   Clear
12:36 AM 59.0 °F 57.2 °F 94% 29.89 in 10.0 mi NW 4.6 mph - N/A   Clear
12:59 AM 59.2 °F 57.6 °F 94% 29.90 in 10.0 mi WNW 3.5 mph - N/A   Clear
1:17 AM 58.6 °F 56.8 °F 94% 29.91 in 10.0 mi WNW 4.6 mph - N/A   Clear
1:35 AM 58.5 °F 56.8 °F 94% 29.92 in 10.0 mi WNW 3.5 mph - N/A   Clear
1:36 AM 58.5 °F 56.8 °F 94% 29.92 in 10.0 mi WNW 3.5 mph - N/A   Clear
1:55 AM 58.3 °F 56.7 °F 94% 29.93 in 10.0 mi Calm Calm - N/A   Clear
2:15 AM 59.0 °F 57.4 °F 94% 29.93 in 10.0 mi Calm Calm - N/A   Clear
2:38 AM 56.7 °F 55.0 °F 94% 29.94 in 10.0 mi Calm Calm - N/A   Clear
2:56 AM 57.6 °F 55.6 °F 93% 29.94 in 0.5 mi Calm Calm - N/A Fog Fog
3:15 AM 56.1 °F 54.3 °F 94% 29.95 in 0.2 mi Calm Calm - N/A Fog Fog
3:16 AM 55.8 °F 54.0 °F 94% 29.95 in 0.2 mi Calm Calm - N/A Fog Fog
3:35 AM 55.8 °F 53.6 °F 92% 29.95 in 2.0 mi Calm Calm - N/A   Scattered Clouds
3:36 AM 55.9 °F 53.8 °F 92% 29.95 in 2.5 mi Calm Calm - N/A   Scattered Clouds
3:59 AM 54.9 °F 52.7 °F 92% 29.95 in 0.2 mi Calm Calm - N/A Fog Fog
4:17 AM 54.9 °F 52.7 °F 92% 29.95 in 1.2 mi Calm Calm - N/A   Mist
4:35 AM 55.0 °F 52.7 °F 92% 29.95 in 0.8 mi Calm Calm - N/A   Mist
4:55 AM 54.0 °F 51.6 °F 92% 29.95 in 0.5 mi Calm Calm - N/A Fog Fog
4:56 AM 53.8 °F 51.6 °F 92% 29.95 in 0.2 mi Calm Calm - N/A Fog Fog
5:15 AM 52.9 °F 50.5 °F 92% 29.95 in 0.8 mi Calm Calm - N/A   Mostly Cloudy
5:20 AM 52.7 °F 50.4 °F 92% 29.95 in 1.0 mi Calm Calm - N/A   Scattered Clouds
5:38 AM 54.5 °F 52.0 °F 91% 29.96 in 0.8 mi Calm Calm - N/A   Mist
5:56 AM 52.7 °F 50.2 °F 91% 29.99 in 0.8 mi SSW 4.6 mph - N/A   Mist
6:15 AM 50.9 °F 48.4 °F 91% 29.98 in 2.5 mi Calm Calm - N/A   Clear
6:35 AM 51.4 °F 49.1 °F 92% 30.00 in 0.8 mi Calm Calm - N/A   Mostly Cloudy
6:36 AM 51.3 °F 48.9 °F 92% 30.00 in 0.8 mi Calm Calm - N/A   Mostly Cloudy
6:59 AM 51.6 °F 49.1 °F 91% 30.01 in 0.5 mi Calm Calm - N/A Fog Fog
7:17 AM 50.2 °F 47.7 °F 91% 30.02 in 0.5 mi Calm Calm - N/A Fog Fog
7:35 AM 51.1 °F 48.6 °F 91% 30.03 in 1.0 mi Calm Calm - N/A   Mist
7:36 AM 50.9 °F 48.4 °F 91% 30.03 in 1.2 mi Calm Calm - N/A   Mist
7:55 AM 52.0 °F 49.3 °F 90% 30.03 in 2.0 mi Calm Calm - N/A   Clear
8:15 AM 54.3 °F 51.6 °F 91% 30.05 in 10.0 mi Calm Calm - N/A   Clear
8:38 AM 56.7 °F 54.3 °F 92% 30.06 in 10.0 mi Calm Calm - N/A   Clear
8:56 AM 59.0 °F 57.4 °F 94% 30.07 in 10.0 mi Calm Calm - N/A   Clear
9:15 AM 60.4 °F 57.2 °F 89% 30.08 in 10.0 mi Calm Calm - N/A   Clear
9:16 AM 60.6 °F 57.4 °F 89% 30.08 in 10.0 mi Calm Calm - N/A   Clear
9:35 AM 62.6 °F 57.6 °F 84% 30.08 in 10.0 mi WNW 3.5 mph - N/A   Clear
9:36 AM 62.6 °F 57.6 °F 84% 30.08 in 10.0 mi WNW 4.6 mph - N/A   Clear
9:59 AM 63.5 °F 53.2 °F 69% 30.09 in 10.0 mi NW 4.6 mph - N/A   Clear
10:17 AM 64.4 °F 50.0 °F 59% 30.09 in 10.0 mi NW 5.8 mph - N/A   Clear
10:35 AM 65.3 °F 48.4 °F 54% 30.09 in 10.0 mi NNW 6.9 mph - N/A   Clear
10:36 AM 65.3 °F 47.8 °F 53% 30.09 in 10.0 mi NNW 6.9 mph - N/A   Clear
10:55 AM 65.7 °F 45.3 °F 48% 30.09 in 10.0 mi NNW 5.8 mph - N/A   Clear
11:15 AM 66.4 °F 46.8 °F 49% 30.09 in 10.0 mi NNW 6.9 mph - N/A   Clear
11:20 AM 67.1 °F 47.1 °F 49% 30.09 in 10.0 mi NW 5.8 mph - N/A   Clear
11:38 AM 67.8 °F 47.3 °F 48% 30.09 in 10.0 mi WNW 5.8 mph - N/A   Clear
11:56 AM 67.3 °F 46.4 °F 47% 30.10 in 10.0 mi WNW 6.9 mph - N/A   Mostly Cloudy
12:15 PM 68.4 °F 44.1 °F 41% 30.11 in 10.0 mi NW 6.9 mph - N/A   Scattered Clouds
12:16 PM 68.4 °F 43.9 °F 41% 30.11 in 10.0 mi WNW 8.1 mph - N/A   Scattered Clouds
12:35 PM 69.6 °F 42.8 °F 38% 30.11 in 10.0 mi WNW 6.9 mph - N/A   Scattered Clouds
12:59 PM 69.3 °F 43.0 °F 39% 30.11 in 10.0 mi WNW 5.8 mph - N/A   Scattered Clouds
1:17 PM 69.8 °F 39.9 °F 34% 30.11 in 10.0 mi NW 10.4 mph 17.3 mph N/A   Clear
1:35 PM 69.1 °F 40.6 °F 36% 30.11 in 10.0 mi West 4.6 mph - N/A   Scattered Clouds
1:55 PM 70.0 °F 38.1 °F 31% 30.11 in 10.0 mi NNW 9.2 mph - N/A   Scattered Clouds
2:15 PM 70.5 °F 37.8 °F 30% 30.11 in 10.0 mi WNW 5.8 mph - N/A   Clear
2:20 PM 70.7 °F 37.2 °F 29% 30.11 in 10.0 mi NW 6.9 mph - N/A   Scattered Clouds
2:38 PM 71.6 °F 36.9 °F 28% 30.11 in 10.0 mi West 8.1 mph - N/A   Scattered Clouds
2:56 PM 71.1 °F 34.5 °F 26% 30.11 in 10.0 mi WNW 8.1 mph - N/A   Clear
3:15 PM 70.9 °F 33.3 °F 25% 30.11 in 10.0 mi WNW 10.4 mph - N/A   Clear
3:35 PM 70.2 °F 31.6 °F 24% 30.11 in 10.0 mi NW 9.2 mph - N/A   Clear
3:59 PM 70.5 °F 32.0 °F 24% 30.11 in 10.0 mi NNW 8.1 mph - N/A   Clear
4:17 PM 70.3 °F 30.2 °F 23% 30.11 in 10.0 mi WNW 8.1 mph - N/A   Clear
4:35 PM 69.8 °F 29.1 °F 22% 30.12 in 10.0 mi NW 5.8 mph - N/A   Clear
4:36 PM 69.8 °F 28.9 °F 22% 30.12 in 10.0 mi NNW 5.8 mph - N/A   Clear
4:55 PM 69.6 °F 28.4 °F 22% 30.13 in 10.0 mi WNW 4.6 mph - N/A   Clear
5:15 PM 69.6 °F 30.0 °F 23% 30.14 in 10.0 mi WNW 5.8 mph - N/A   Clear
5:38 PM 69.3 °F 33.1 °F 26% 30.15 in 10.0 mi WNW 8.1 mph - N/A   Clear
5:56 PM 68.9 °F 34.7 °F 28% 30.15 in 10.0 mi NW 8.1 mph - N/A   Clear
6:15 PM 68.4 °F 34.0 °F 28% 30.16 in 10.0 mi NW 5.8 mph - N/A   Clear
6:16 PM 68.2 °F 34.3 °F 29% 30.15 in 10.0 mi NW 8.1 mph - N/A   Clear
6:35 PM 67.1 °F 37.0 °F 33% 30.16 in 10.0 mi NW 8.1 mph - N/A   Clear
6:36 PM 67.1 °F 37.4 °F 34% 30.16 in 10.0 mi WNW 8.1 mph - N/A   Clear
6:59 PM 65.8 °F 38.3 °F 36% 30.17 in 10.0 mi NW 6.9 mph - N/A   Clear
7:17 PM 66.2 °F 38.8 °F 37% 30.17 in 10.0 mi NW 6.9 mph - N/A   Clear
7:55 PM 64.0 °F 38.1 °F 38% 30.18 in 10.0 mi WNW 6.9 mph - N/A   Clear
7:56 PM 63.9 °F 38.1 °F 39% 30.18 in 10.0 mi WNW 5.8 mph - N/A   Clear
8:15 PM 61.0 °F 41.7 °F 49% 30.19 in 10.0 mi NW 4.6 mph - N/A   Clear
8:20 PM 60.4 °F 41.7 °F 50% 30.19 in 10.0 mi NW 4.6 mph - N/A   Clear
8:38 PM 58.8 °F 42.3 °F 54% 30.19 in 10.0 mi NNW 5.8 mph - N/A   Clear
8:56 PM 57.0 °F 42.8 °F 59% 30.20 in 10.0 mi NNW 5.8 mph - N/A   Clear
9:15 PM 56.8 °F 41.9 °F 57% 30.21 in 10.0 mi NNW 4.6 mph - N/A   Clear
9:35 PM 55.6 °F 42.8 °F 62% 30.21 in 10.0 mi NNW 3.5 mph - N/A   Clear
9:59 PM 54.3 °F 43.9 °F 68% 30.22 in 10.0 mi Calm Calm - N/A   Clear
10:17 PM 55.4 °F 42.8 °F 63% 30.22 in 10.0 mi Calm Calm - N/A   Clear
10:35 PM 52.3 °F 46.2 °F 80% 30.23 in 10.0 mi Calm Calm - N/A   Clear
10:36 PM 52.0 °F 46.2 °F 81% 30.23 in 10.0 mi Calm Calm - N/A   Clear
10:55 PM 50.7 °F 47.1 °F 87% 30.23 in 10.0 mi Calm Calm - N/A   Clear
10:56 PM 50.7 °F 46.9 °F 87% 30.23 in 10.0 mi Calm Calm - N/A   Clear
11:15 PM 50.5 °F 47.3 °F 89% 30.23 in 10.0 mi Calm Calm - N/A   Clear
11:20 PM 51.3 °F 47.3 °F 86% 30.24 in 10.0 mi Calm Calm - N/A   Clear
11:38 PM 51.6 °F 46.6 °F 83% 30.24 in 10.0 mi Calm Calm - N/A   Clear
11:56 PM 50.9 °F 46.8 °F 86% 30.24 in 10.0 mi Calm Calm - N/A   Clear